KUIPER-00020

导读

KUIPER-00020是美国亚马逊公司“柯伊伯计划”(Project Kuiper)星座中的一颗卫星,该计划旨在近地轨道部署3236颗卫星,为全球提供高速卫星互联网接入服务。KUIPER-00020于2025年4月28日发射升空,属于项目批量部署的量产卫星,将参与构建全球低轨宽带通信网络,推动太空互联网基础设施建设,为偏远地区等提供高速网络连接选项,丰富全球卫星互联网服务布局。

基本信息
目录编号:
63735
目录名称:
KUIPER-00020
国际标识:
2025-088M
轨道中心:
EARTH
卫星名称:
KUIPER-00020
卫星全名:
KUIPER-00020
卫星状态:
在轨 (已飞行502 天)
发射日期:
2025-04-28 UTC
国别 :
美国 (US)
星等 :
--
该卫星已列入 空间交会检测服务 Space Conjunction Data Service (SCDS) ,当前飞行风险评估等级: 无高风险
轨道信息
数据来源 国际轨道数据 AOE轨道数据
星历时间 2026-09-11T19:51:59+0800
14小时前
查看轨道信息
2026-09-10T07:00:00+0800
2天前
查看轨道信息
半长轴 7007.696km 7007.653km
偏心率 0.0000327 0.0000693
轨道倾角 51.905° 51.903°
近地点辐角 90.860° 132.543°
升交点赤经 1.483° 8.277°
平近点角 269.240° 318.721°
近地点 629.329km 629.03km
远地点 629.789km 630.002km
周期 97.302分钟 97.301分钟
每日圈数 14.799259 14.799393
详细信息
使用方式:
暂无
2D轨道图
3D轨道图
轨道高度分析图
轨道倾角分析图
轨道综合分析图
查看轨道综合分析图
与全量物体交会距离演化趋势
与全量物体交会风险概率演化趋势